Location: Newark
(45.2500°N, 7.5833°E)
Time: 12:42:22
(UTC+00:00)

BEESAT 2 - Pass Details

Date: 28 February 2020
Orbit: 494 x 533 km, 64.9° (Epoch: 05 April)

Event Time Altitude Azimuth Distance (km) Brightness Sun altitude
Rises 20:14:55 0° 309° (NW) 2,687 ? -31.9°
Reaches altitude 10° 20:17:46 10° 287° (WNW) 1,789 ? -32.4°
Enters shadow 20:19:32 15° 262° (W) 1,470 ? -32.7°
